Location: Be Tobo
(6.6442°N, 10.6239°W)
Time: 01:03:24
(UTC+00:00)

SL-24 R/B - Pass Details

Date: 18 September 2020
Orbit: 625 x 1075 km, 98.0° (Epoch: 21 October)

Event Time Altitude Azimuth Distance (km) Brightness Sun altitude
Rises 19:13:27 0° 163° (SSE) 3,003 7.4 -9.0°
Reaches altitude 10° 19:15:44 10° 161° (SSE) 2,051 6.5 -9.6°
Maximum altitude 19:20:06 67° 79° (ENE) 681 4.0 -10.7°
Drops below altitude 10° 19:24:20 10° 356° (N) 1,991 6.8 -11.7°
Sets 19:26:31 0° 353° (N) 2,906 7.6 -12.3°
